Regional Weather Roundup
Issued by NWS Sioux Falls, SD

Home | Current Version | Previous Version | Text Only | Print | Product List | Glossary Off
Versions: 1 2 3 4 5 6 7 8 9 10 11 12 13 14 15 16 17 18 19 20 21 22 23 24 25 26 27 28 29 30 31 32 33 34 35 36 37 38 39 40 41 42 43 44 45 46 47 48 49 50

000
ASUS43 KFSD 160310
RWRFSD

WEATHER ROUNDUP FOR SE SOUTH DAKOTA/SW MINNESOTA/NW IOWA
NATIONAL WEATHER SERVICE SIOUX FALLS SD
900 PM CST MON JAN 15 2018

NOTE: "FAIR" INDICATES FEW OR NO CLOUDS BELOW 12,000 FEET WITH NO
SIGNIFICANT WEATHER AND OR OBSTRUCTIONS TO VISIBILITY.


SDZ038>040-050-052>070-160400-
SOUTHEAST SOUTH DAKOTA

CITY           SKY/WX    TMP DP  RH WIND       PRES   REMARKS
BROOKINGS      MOCLDY    -8 -14  74 N16       30.64  WCI -30
CHAMBERLAIN    CLEAR     -2 -10  67 NW14G20   30.76S WCI -21
HURON          CLOUDY    -4 -11  72 N20G31    30.76S WCI -27
MADISON        FAIR      -6  -9  84 N22G29    30.63S WCI -31
MITCHELL       CLOUDY    -2 -10  69 N26G33    30.76R WCI -27
SIOUX FALLS    FLURRIES  -5 -11  75 N20G29    30.65R WCI -28
WINNER         FAIR      -1 -10  65 N17       30.73F WCI -22
YANKTON        MOCLDY    -2  -9  72 NW21G29   30.70R WCI -25
$$

MNZ071-072-080-081-089-090-097-098-160400-
SOUTHWEST MINNESOTA

CITY           SKY/WX    TMP DP  RH WIND       PRES   REMARKS
FAIRMONT       LGT SNOW  -9 -14  78 NW22G29   30.58  WCI -35
JACKSON        CLOUDY    -9 -17  70 NW24G32   30.56S WCI -36
LUVERNE        PTCLDY    -6 -13  71 N13       30.64R WCI -25
MARSHALL       LGT SNOW  -9 -15  77 N22G29    30.67R WCI -35
MONTEVIDEO     CLOUDY    -9 -17  70 N20G25    30.69R WCI -34
PIPESTONE      LGT SNOW  -8 -13  77 N16       30.60R WCI -30
REDWOOD FALLS  CLOUDY    -9 -15  75 NW15G22   30.65R WCI -31
WINDOM         CLOUDY   -11 -24  53 NW29      30.57F HAZE    WCI -41
WORTHINGTON    CLOUDY   -10 -16  74 N23       30.59R WCI -37
$$

IAZ001>003-012>014-020>022-031-032-NEZ013-014-SDZ071-160400-
NORTHWEST IOWA

CITY           SKY/WX    TMP DP  RH WIND       PRES   REMARKS
CHEROKEE       CLEAR     -5 -12  73 N13G20    30.64R WCI -25
DENISON        MOCLDY    -4 -11  71 NW12      30.65R WCI -22
ESTHERVILLE    CLOUDY   -10 -15  78 NW21      30.57S HAZE    WCI -35
LE MARS        CLOUDY    -4 -11  71 NW15      30.67S WCI -25
ORANGE CITY    CLEAR     -4  -9  77 N14       30.62R WCI -24
SHELDON        CLOUDY    -6 -13  71 N17G24    30.62R WCI -28
SIOUX CITY     PTCLDY    -3 -10  72 NW24G32   30.67S WCI -28
SPENCER        CLOUDY    -8 -15  71 NW18      30.61R WCI -32
STORM LAKE     MOCLDY    -6 -11  77 NW17      30.58R WCI -28
$$

ABBREVIATIONS USED IN REMARKS
   TC - TEMPERATURE IN CELSIUS
  WCI - WIND CHILL INDEX
   HX - HEAT INDEX
  VSB - VISIBILITY





USA.gov is the U.S. government's official web portal to all federal, state and local government web resources and services.